Location: Bieg
(49.3499°N, 10.3835°E)
Time: 11:42:46
(UTC+00:00)

Cosmos 1455 - Pass Details

Date: 23 May 2024
Orbit: 445 x 459 km, 82.5° (Epoch: 25 June)

Event Time Altitude Azimuth Distance (km) Brightness Sun altitude
Rises 00:26:52 0° 354° (N) 2,461 6.9 -18.2°
Reaches altitude 10° 00:28:59 10° 359° (N) 1,585 5.8 -18.1°
Maximum altitude 00:32:22 52° 77° (ENE) 569 2.5 -17.9°
Enters shadow 00:33:43 31° 138° (SE) 822 2.9 -17.9°
